Regional Weather Roundup
Issued by NWS

Home | Current Version | Previous Version | Graphics & Text | Print | Product List | Glossary Off
Versions: 1 2 3 4 5 6 7 8 9 10 11 12 13 14 15 16 17 18 19 20 21 22 23 24 25 26 27 28 29 30 31 32 33 34 35 36 37 38 39 40 41 42 43 44 45 46 47 48 49 50

845
ASUS43 KDMX 150601
RWRIA

WEATHER ROUNDUP FOR IOWA
NATIONAL WEATHER SERVICE DES MOINES IA
1200 AM CST FRI DEC 15 2017

NOTE: "FAIR" INDICATES FEW OR NO CLOUDS BELOW 12,000 FEET WITH NO
SIGNIFICANT WEATHER AND/OR OBSTRUCTIONS TO VISIBILITY.

* - THESE STATIONS ARE NOT NWS STATIONS...THUS NOT UNDER NWS
QUALITY CONTROL.  THEY ALSO DO NOT REPORT WEATHER SUCH
AS PRECIPITATION OR FOG.

IAZ001>003-012>014-020>022-031>034-043>046-150700-
   NORTHWEST IOWA

CITY           SKY/WX    TMP DP  RH WIND       PRES   REMARKS
CARROLL *      MOCLDY    28  23  80 N15       30.09R WCI  17
CHEROKEE *     CLOUDY    28  24  86 CALM      30.08F
DENISON *      CLOUDY    30  25  80 N9        30.11F WCI  22
LE MARS *      CLOUDY    30  25  80 W6G12     30.10F WCI  24
ORANGE CITY *  CLOUDY    28  27  93 W6        30.07F WCI  22
SHELDON *      CLOUDY    27  23  86 W8        30.05F WCI  18
SIOUX CITY     CLOUDY    31  24  75 NW10      30.12F WCI  22
6HR MIN TEMP:  31; 6HR MAX TEMP:  37; 6HR PCP: TRACE;

SPENCER        CLOUDY    26  23  88 W7        30.05F WCI  18
6HR MIN TEMP:  21; 6HR MAX TEMP:  30; 6HR PCP: TRACE;

STORM LAKE *   CLOUDY    25  21  86 W7        30.06F WCI  17
$$

IAZ055>058-069>071-079>083-090>094-150700-
   SOUTHWEST IOWA

CITY           SKY/WX    TMP DP  RH WIND       PRES   REMARKS
ATLANTIC *     CLOUDY    34  28  80 NW10      30.09F WCI  26
AUDUBON *      CLOUDY    32  27  80 NW12      30.10R WCI  23
CLARINDA *     CLOUDY    34  27  75 W7          N/A  WCI  28
COUNCIL BLFS * CLOUDY    34  28  80 NW13      30.11S WCI  25
CRESTON *      CLOUDY    30  25  80 W7        30.09S WCI  23
HARLAN  *      MOCLDY    32  27  80 NW13      30.13S WCI  22
LAMONI         CLOUDY    31  24  75 W9        30.08F WCI  23
6HR MIN TEMP:  27; 6HR MAX TEMP:  32;

RED OAK *      CLOUDY    36  27  69 NW8       30.11F WCI  29
SHENANDOAH *   CLOUDY    36  27  69 NW7       30.13S WCI  30
$$

IAZ047>049-059>061-072>074-084-150700-
   CENTRAL IOWA

CITY           SKY/WX    TMP DP  RH WIND       PRES   REMARKS
AMES           CLOUDY    29  27  92 N13       30.07S WCI  19
6HR MIN TEMP:  29; 6HR MAX TEMP:  32;

ANKENY *       CLOUDY    32  25  74 N9        30.08R WCI  24
BOONE *        CLOUDY    28  27  93 N13G18    30.06S WCI  18
CHARITON *     CLOUDY    30  25  80 W7        30.06F WCI  23
DES MOINES     CLOUDY    32  24  72 W3        30.06F
6HR MIN TEMP:  30; 6HR MAX TEMP:  32;

GRINNELL*      MIX PCPN  29  24  81 NW9       30.05S WCI  21
KNOXVILLE *    CLOUDY    30  21  69 W8        30.04F WCI  23
MARSHALLTOWN   CLOUDY    27  24  89 NW10      30.04F WCI  17
6HR MIN TEMP:  25; 6HR MAX TEMP:  29;

NEWTON *       CLOUDY    30  25  80 N9        30.05F WCI  22
PELLA *        CLOUDY    31  23  72 W6        30.07S WCI  25
$$

IAZ004>006-015-016-023>025-035-036-150700-
   NORTH CENTRAL IOWA

CITY           SKY/WX    TMP DP  RH WIND       PRES   REMARKS
ALGONA *       CLOUDY    25  23  93 W9        30.03F WCI  15
CLARION *      CLEAR     21  21 100 NW7       30.05S WCI  13
ESTHERVILLE    CLOUDY    25  22  88 W12       30.03F WCI  14
6HR MIN TEMP:  22; 6HR MAX TEMP:  26;

FORT DODGE *   CLEAR     23  20  88 NW5       30.06F WCI  17
MASON CITY     MOCLDY    23  17  78 W10       30.02F WCI  12
6HR MIN TEMP:  22; 6HR MAX TEMP:  26;

FOREST CITY *  CLOUDY    27  21  80 W7        30.01F WCI  19
WEBSTER CITY * CLOUDY    27  23  86 NW13      30.04F WCI  16
IOWA FALLS *   CLOUDY    28  25  89 NW13      30.05F WCI  17
$$

IAZ007>011-017>019-026>030-037>042-050>054-066-150700-
   NORTHEAST IOWA

CITY           SKY/WX    TMP DP  RH WIND       PRES   REMARKS
CEDAR RAPIDS   CLOUDY    27  20  75 W10       30.02F WCI  17
6HR MIN TEMP:  23; 6HR MAX TEMP:  27;

CHARLES CITY * CLOUDY    25  18  74 NW16      30.01F WCI  12
CLINTON *      CLOUDY    25  18  74 SW12      30.02F WCI  14
DECORAH *      CLOUDY    25  19  80 VRB7      29.96F WCI  17
DUBUQUE        CLOUDY    25  19  78 W14       29.98F WCI  13
6HR MIN TEMP:  23; 6HR MAX TEMP:  25;

MONTICELLO *   CLOUDY    27  18  69 W8        30.01F WCI  18
OELWEIN *      CLOUDY    25  21  86 W9        30.01F WCI  15
WATERLOO       CLOUDY    27  19  72 W7        30.02F WCI  19
6HR MIN TEMP:  25; 6HR MAX TEMP:  27;

$$

IAZ064-065-067-068-078-150700-
   EAST CENTRAL IOWA

CITY           SKY/WX    TMP DP  RH WIND       PRES   REMARKS
DAVENPORT      CLOUDY    25  16  68 SW12      30.05F WCI  14
6HR MIN TEMP:  25; 6HR MAX TEMP:  26;

IOWA CITY      CLOUDY    28  19  69 W7        30.06F WCI  21
6HR MIN TEMP:  26; 6HR MAX TEMP:  28;

MT. PLEASANT * CLOUDY    25  19  77 SW7       30.06F WCI  17
MUSCATINE *    CLOUDY    27  18  69 SW6       30.06F WCI  20
QUAD CITIES    CLOUDY    27  17  66 SW7       30.04F WCI  19
6HR MIN TEMP:  26; 6HR MAX TEMP:  27;

$$

IAZ062-063-075>077-085>089-095>099-150700-
   SOUTHEAST IOWA

CITY           SKY/WX    TMP DP  RH WIND       PRES   REMARKS
BURLINGTON     CLOUDY    27  19  72 SW8       30.06F WCI  19
6HR MIN TEMP:  26; 6HR MAX TEMP:  28;

FAIRFIELD *    CLOUDY    27  19  74 SW7       30.05F WCI  19
FORT MADISON * CLOUDY    27  19  74 SW6       30.07F WCI  20
KEOKUK *       CLOUDY    27  21  80 SW6       30.07F WCI  20
OSKALOOSA *    CLOUDY    28  21  76 W7        30.05F WCI  21
OTTUMWA        CLOUDY    28  19  69 SW7       30.05F WCI  21
6HR MIN TEMP:  26; 6HR MAX TEMP:  28;

WASHINGTON *   CLOUDY    25  21  86 SW6       30.06F WCI  18
$$

ABBREVIATIONS USED IN REMARKS
   TC - TEMPERATURES IN CELSIUS
  WCI - WIND CHILL INDEX
   HX - HEAT INDEX
  VSB - VISIBILITY
$$





USA.gov is the U.S. government's official web portal to all federal, state and local government web resources and services.